| time (UTC) | temp F | wind direction | speed MPH | gust MPH | rain 1hr in | rain 24hr in | rain mn in | humidity % | barometer mb |
| 20260509002001 | 59 | 29 | 4.0 | 8.0 | 0.00 | 0.00 | 0.00 | 52 | 1028.8 |
| 20260509001001 | 59 | 49 | 2.0 | 5.0 | 0.00 | 0.00 | 0.00 | 53 | 1028.8 |
| 20260509000001 | 58 | 23 | 4.0 | 8.0 | 0.00 | 0.00 | 0.00 | 54 | 1028.7 |
| 20260508235001 | 57 | 37 | 4.0 | 7.0 | 0.00 | 0.00 | 0.00 | 55 | 1028.6 |
| 20260508234001 | 56 | 89 | 4.0 | 9.0 | 0.00 | 0.00 | 0.00 | 56 | 1028.5 |
| 20260508233022 | 56 | 69 | 3.0 | 6.0 | 0.00 | 0.00 | 0.00 | 56 | 1028.5 |
| 20260508232023 | 56 | 72 | 2.0 | 6.0 | 0.00 | 0.00 | 0.00 | 56 | 1028.6 |
| 20260508231001 | 56 | 28 | 2.0 | 6.0 | 0.00 | 0.00 | 0.00 | 56 | 1028.5 |
| 20260508230001 | 56 | 58 | 3.0 | 7.0 | 0.00 | 0.00 | 0.00 | 56 | 1028.4 |
| 20260508225022 | 57 | 5 | 3.0 | 6.0 | 0.00 | 0.00 | 0.00 | 55 | 1028.4 |
| 20260508224001 | 57 | 18 | 3.0 | 6.0 | 0.00 | 0.00 | 0.00 | 54 | 1028.2 |
| 20260508223002 | 57 | 22 | 3.0 | 7.0 | 0.00 | 0.00 | 0.00 | 54 | 1028.1 |
| 20260508222002 | 57 | 16 | 3.0 | 6.0 | 0.00 | 0.00 | 0.00 | 53 | 1028.1 |
| 20260508221022 | 58 | 29 | 3.0 | 7.0 | 0.00 | 0.00 | 0.00 | 53 | 1028.0 |
| 20260508220002 | 58 | 12 | 2.0 | 5.0 | 0.00 | 0.00 | 0.00 | 52 | 1028.0 |
| 20260508215001 | 58 | 33 | 6.0 | 12.0 | 0.00 | 0.00 | 0.00 | 52 | 1027.9 |
| 20260508214001 | 58 | 40 | 4.0 | 8.0 | 0.00 | 0.00 | 0.00 | 52 | 1027.8 |
| 20260508213002 | 59 | 32 | 4.0 | 8.0 | 0.00 | 0.00 | 0.00 | 52 | 1027.7 |
| 20260508212001 | 59 | 25 | 5.0 | 8.0 | 0.00 | 0.00 | 0.00 | 51 | 1027.5 |
| 20260508211002 | 59 | 55 | 3.0 | 6.0 | 0.00 | 0.00 | 0.00 | 51 | 1027.5 |
| 20260508205022 | 59 | 27 | 3.0 | 14.0 | 0.00 | 0.00 | 0.00 | 50 | 1027.3 |
| 20260508204001 | 59 | 63 | 4.0 | 8.0 | 0.00 | 0.00 | 0.00 | 51 | 1027.2 |
| 20260508203001 | 59 | 76 | 3.0 | 6.0 | 0.00 | 0.00 | 0.00 | 51 | 1027.3 |
| 20260508202023 | 59 | 32 | 3.0 | 6.0 | 0.00 | 0.00 | 0.00 | 51 | 1027.3 |
| 20260508201001 | 59 | 97 | 3.0 | 6.0 | 0.00 | 0.00 | 0.00 | 50 | 1027.3 |
| 20260508200023 | 59 | 18 | 2.0 | 5.0 | 0.00 | 0.00 | 0.00 | 50 | 1027.3 |
| 20260508195001 | 59 | 6 | 2.0 | 6.0 | 0.00 | 0.00 | 0.00 | 50 | 1027.1 |
| 20260508194001 | 59 | 26 | 3.0 | 7.0 | 0.00 | 0.00 | 0.00 | 50 | 1027.1 |
| 20260508193022 | 60 | 59 | 3.0 | 8.0 | 0.00 | 0.00 | 0.00 | 49 | 1027.1 |
| 20260508192001 | 60 | 30 | 2.0 | 6.0 | 0.00 | 0.00 | 0.00 | 49 | 1027.1 |
| 20260508191001 | 60 | 64 | 2.0 | 3.0 | 0.00 | 0.00 | 0.00 | 49 | 1027.0 |
| 20260508190002 | 60 | 33 | 2.0 | 3.0 | 0.00 | 0.00 | 0.00 | 49 | 1027.1 |
| 20260508185002 | 60 | 79 | 3.0 | 6.0 | 0.00 | 0.00 | 0.00 | 48 | 1027.0 |
| 20260508184002 | 61 | 132 | 2.0 | 5.0 | 0.00 | 0.00 | 0.00 | 48 | 1027.1 |
| 20260508183001 | 61 | 69 | 4.0 | 8.0 | 0.00 | 0.00 | 0.00 | 47 | 1027.1 |
| 20260508182001 | 61 | 93 | 4.0 | 8.0 | 0.00 | 0.00 | 0.00 | 47 | 1027.1 |
| 20260508181023 | 61 | 53 | 4.0 | 10.0 | 0.00 | 0.00 | 0.00 | 47 | 1027.0 |
| 20260508180001 | 61 | 26 | 3.0 | 7.0 | 0.00 | 0.00 | 0.00 | 47 | 1027.0 |
| 20260508175001 | 61 | 52 | 3.0 | 6.0 | 0.00 | 0.00 | 0.00 | 47 | 1027.0 |
| 20260508174001 | 62 | 36 | 3.0 | 5.0 | 0.00 | 0.00 | 0.00 | 46 | 1026.9 |
| 20260508173001 | 62 | 61 | 4.0 | 9.0 | 0.00 | 0.00 | 0.00 | 45 | 1026.9 |
| 20260508172022 | 62 | 81 | 5.0 | 8.0 | 0.00 | 0.00 | 0.00 | 45 | 1027.0 |
| 20260508171001 | 62 | 28 | 4.0 | 8.0 | 0.00 | 0.00 | 0.00 | 45 | 1027.1 |
| 20260508170001 | 62 | 54 | 7.0 | 12.0 | 0.00 | 0.00 | 0.00 | 45 | 1027.0 |
| 20260508165001 | 63 | 45 | 3.0 | 6.0 | 0.00 | 0.00 | 0.00 | 45 | 1027.0 |
| 20260508164001 | 63 | 27 | 4.0 | 9.0 | 0.00 | 0.00 | 0.00 | 45 | 1026.9 |
| 20260508163001 | 63 | 57 | 2.0 | 5.0 | 0.00 | 0.00 | 0.00 | 45 | 1026.9 |
| 20260508162002 | 62 | 29 | 5.0 | 10.0 | 0.00 | 0.00 | 0.00 | 45 | 1026.8 |
| 20260508161001 | 63 | 57 | 3.0 | 7.0 | 0.00 | 0.00 | 0.00 | 45 | 1026.8 |
| 20260508160001 | 63 | 205 | 2.0 | 5.0 | 0.00 | 0.00 | 0.00 | 43 | 1026.8 |
| 20260508155002 | 63 | 50 | 4.0 | 7.0 | 0.00 | 0.00 | 0.00 | 43 | 1026.8 |
| 20260508154001 | 64 | 33 | 4.0 | 8.0 | 0.00 | 0.00 | 0.00 | 42 | 1026.9 |
| 20260508153002 | 64 | 101 | 3.0 | 6.0 | 0.00 | 0.00 | 0.00 | 42 | 1026.8 |
| 20260508152023 | 64 | 45 | 3.0 | 8.0 | 0.00 | 0.00 | 0.00 | 42 | 1026.8 |
| 20260508151002 | 64 | 35 | 2.0 | 6.0 | 0.00 | 0.00 | 0.00 | 42 | 1026.8 |
| 20260508150002 | 64 | 10 | 1.0 | 2.0 | 0.00 | 0.00 | 0.00 | 41 | 1026.9 |
| 20260508145001 | 64 | 2 | 2.0 | 6.0 | 0.00 | 0.00 | 0.00 | 41 | 1026.9 |
| 20260508144001 | 64 | 6 | 1.0 | 3.0 | 0.00 | 0.00 | 0.00 | 41 | 1027.0 |
| 20260508143001 | 64 | 75 | 1.0 | 5.0 | 0.00 | 0.00 | 0.00 | 41 | 1027.0 |
| 20260508141022 | 65 | 73 | 4.0 | 7.0 | 0.00 | 0.00 | 0.00 | 40 | 1027.1 |
| 20260508140002 | 65 | 44 | 3.0 | 10.0 | 0.00 | 0.00 | 0.00 | 41 | 1027.1 |
| 20260508135022 | 66 | 38 | 2.0 | 6.0 | 0.00 | 0.00 | 0.00 | 41 | 1027.1 |
| 20260508134001 | 65 | 35 | 3.0 | 6.0 | 0.00 | 0.00 | 0.00 | 42 | 1027.1 |
| 20260508132001 | 65 | 60 | 2.0 | 5.0 | 0.00 | 0.00 | 0.00 | 44 | 1027.1 |
| 20260508131001 | 64 | 28 | 3.0 | 7.0 | 0.00 | 0.00 | 0.00 | 45 | 1027.1 |
| 20260508130003 | 64 | 36 | 1.0 | 2.0 | 0.00 | 0.00 | 0.00 | 47 | 1027.1 |
| 20260508125001 | 63 | 130 | 1.0 | 1.0 | 0.00 | 0.00 | 0.00 | 48 | 1027.0 |
| 20260508124022 | 64 | 92 | 2.0 | 3.0 | 0.00 | 0.00 | 0.00 | 47 | 1027.0 |
| 20260508123002 | 64 | 73 | 1.0 | 3.0 | 0.00 | 0.00 | 0.00 | 46 | 1026.9 |
| 20260508122001 | 65 | 58 | 1.0 | 2.0 | 0.00 | 0.00 | 0.00 | 47 | 1026.8 |
| 20260508121003 | 64 | 82 | 2.0 | 3.0 | 0.00 | 0.00 | 0.00 | 46 | 1026.9 |
| 20260508120002 | 64 | 20 | 1.0 | 3.0 | 0.00 | 0.00 | 0.00 | 47 | 1027.0 |
| 20260508115001 | 64 | 87 | 2.0 | 3.0 | 0.00 | 0.00 | 0.00 | 47 | 1026.9 |
| 20260508114001 | 64 | 88 | 1.0 | 2.0 | 0.00 | 0.00 | 0.00 | 48 | 1026.9 |
| 20260508113001 | 65 | 101 | 1.0 | 1.0 | 0.00 | 0.00 | 0.00 | 47 | 1026.9 |
| 20260508112023 | 65 | 159 | 1.0 | 2.0 | 0.00 | 0.00 | 0.00 | 47 | 1026.9 |
| 20260508111002 | 66 | 70 | 1.0 | 2.0 | 0.00 | 0.00 | 0.00 | 46 | 1026.9 |
| 20260508110002 | 66 | 87 | 4.0 | 6.0 | 0.00 | 0.00 | 0.00 | 45 | 1026.9 |
| 20260508105001 | 66 | 112 | 1.0 | 1.0 | 0.00 | 0.00 | 0.00 | 44 | 1027.0 |
| 20260508104002 | 67 | 83 | 3.0 | 6.0 | 0.00 | 0.00 | 0.00 | 44 | 1027.0 |
| 20260508103003 | 67 | 73 | 2.0 | 3.0 | 0.00 | 0.00 | 0.00 | 44 | 1026.8 |
| 20260508102001 | 68 | 95 | 2.0 | 3.0 | 0.00 | 0.00 | 0.00 | 43 | 1026.8 |
| 20260508101001 | 68 | 87 | 4.0 | 7.0 | 0.00 | 0.00 | 0.00 | 42 | 1026.8 |
| 20260508100001 | 69 | 84 | 6.0 | 10.0 | 0.00 | 0.00 | 0.00 | 42 | 1026.7 |
| 20260508095001 | 69 | 80 | 4.0 | 8.0 | 0.00 | 0.00 | 0.00 | 41 | 1026.7 |
| 20260508094002 | 69 | 71 | 4.0 | 8.0 | 0.00 | 0.00 | 0.00 | 41 | 1026.6 |
| 20260508093001 | 70 | 80 | 5.0 | 9.0 | 0.00 | 0.00 | 0.00 | 41 | 1026.5 |
| 20260508092002 | 70 | 75 | 3.0 | 7.0 | 0.00 | 0.00 | 0.00 | 40 | 1026.4 |
| 20260508091023 | 71 | 80 | 4.0 | 12.0 | 0.00 | 0.00 | 0.00 | 40 | 1026.4 |
| 20260508090001 | 71 | 74 | 4.0 | 8.0 | 0.00 | 0.00 | 0.00 | 39 | 1026.3 |
| 20260508085001 | 71 | 83 | 5.0 | 10.0 | 0.00 | 0.00 | 0.00 | 39 | 1026.2 |
| 20260508084002 | 71 | 77 | 4.0 | 6.0 | 0.00 | 0.00 | 0.00 | 39 | 1026.2 |
| 20260508083002 | 72 | 83 | 4.0 | 7.0 | 0.00 | 0.00 | 0.00 | 39 | 1026.2 |
| 20260508082002 | 72 | 69 | 4.0 | 9.0 | 0.00 | 0.00 | 0.00 | 39 | 1026.2 |
| 20260508081001 | 72 | 81 | 6.0 | 13.0 | 0.00 | 0.00 | 0.00 | 38 | 1026.2 |
| 20260508080001 | 73 | 90 | 4.0 | 9.0 | 0.00 | 0.00 | 0.00 | 37 | 1026.2 |
| 20260508075001 | 73 | 54 | 3.0 | 7.0 | 0.00 | 0.00 | 0.00 | 38 | 1026.2 |
| 20260508074022 | 73 | 75 | 5.0 | 8.0 | 0.00 | 0.00 | 0.00 | 39 | 1026.2 |
| 20260508073001 | 73 | 60 | 4.0 | 7.0 | 0.00 | 0.00 | 0.00 | 39 | 1026.2 |
| 20260508072001 | 73 | 20 | 7.0 | 12.0 | 0.00 | 0.00 | 0.00 | 38 | 1026.2 |
| 20260508071001 | 73 | 66 | 4.0 | 9.0 | 0.00 | 0.00 | 0.00 | 38 | 1026.2 |
| 20260508070001 | 73 | 75 | 5.0 | 9.0 | 0.00 | 0.00 | 0.00 | 39 | 1026.2 |
| 20260508065022 | 73 | 79 | 8.0 | 14.0 | 0.00 | 0.00 | 0.00 | 38 | 1026.3 |
| 20260508064002 | 73 | 77 | 5.0 | 8.0 | 0.00 | 0.00 | 0.00 | 38 | 1026.4 |
| 20260508063001 | 73 | 72 | 5.0 | 8.0 | 0.00 | 0.00 | 0.00 | 38 | 1026.4 |
| 20260508062001 | 73 | 90 | 6.0 | 12.0 | 0.00 | 0.00 | 0.00 | 40 | 1026.5 |
| 20260508061002 | 73 | 81 | 5.0 | 8.0 | 0.00 | 0.00 | 0.00 | 40 | 1026.6 |
| 20260508060002 | 73 | 84 | 6.0 | 10.0 | 0.00 | 0.00 | 0.00 | 39 | 1026.8 |
| 20260508055022 | 73 | 69 | 6.0 | 12.0 | 0.00 | 0.00 | 0.00 | 40 | 1026.9 |
| 20260508054022 | 73 | 81 | 7.0 | 13.0 | 0.00 | 0.00 | 0.00 | 41 | 1026.9 |
| 20260508053001 | 72 | 79 | 5.0 | 7.0 | 0.00 | 0.00 | 0.00 | 42 | 1026.9 |
| 20260508052023 | 72 | 75 | 4.0 | 7.0 | 0.00 | 0.00 | 0.00 | 43 | 1027.0 |
| 20260508051001 | 72 | 41 | 3.0 | 7.0 | 0.00 | 0.00 | 0.00 | 43 | 1027.3 |
| 20260508050002 | 71 | 77 | 6.0 | 10.0 | 0.00 | 0.00 | 0.00 | 44 | 1027.5 |
| 20260508045001 | 71 | 67 | 5.0 | 12.0 | 0.00 | 0.00 | 0.00 | 45 | 1027.5 |
| 20260508044022 | 71 | 39 | 3.0 | 7.0 | 0.00 | 0.00 | 0.00 | 45 | 1027.7 |
| 20260508043002 | 70 | 96 | 3.0 | 7.0 | 0.00 | 0.00 | 0.00 | 47 | 1027.9 |
| 20260508042002 | 70 | 84 | 7.0 | 12.0 | 0.00 | 0.00 | 0.00 | 47 | 1028.2 |
| 20260508041002 | 70 | 80 | 4.0 | 8.0 | 0.00 | 0.00 | 0.00 | 47 | 1028.5 |
| 20260508040001 | 70 | 29 | 7.0 | 13.0 | 0.00 | 0.00 | 0.00 | 47 | 1028.6 |
| 20260508035001 | 70 | 80 | 6.0 | 12.0 | 0.00 | 0.00 | 0.00 | 47 | 1028.9 |
| 20260508034002 | 69 | 62 | 4.0 | 13.0 | 0.00 | 0.00 | 0.00 | 48 | 1029.0 |
| 20260508033023 | 69 | 99 | 4.0 | 10.0 | 0.00 | 0.00 | 0.00 | 48 | 1029.2 |
| 20260508032001 | 68 | 189 | 4.0 | 13.0 | 0.00 | 0.00 | 0.00 | 49 | 1029.5 |
| 20260508031001 | 68 | 11 | 5.0 | 9.0 | 0.00 | 0.00 | 0.00 | 50 | 1029.6 |
| 20260508030002 | 68 | 29 | 5.0 | 9.0 | 0.00 | 0.00 | 0.00 | 50 | 1029.8 |
| 20260508025002 | 68 | 37 | 6.0 | 12.0 | 0.00 | 0.00 | 0.00 | 51 | 1029.9 |
| 20260508024023 | 67 | 36 | 4.0 | 9.0 | 0.00 | 0.00 | 0.00 | 51 | 1030.0 |
| 20260508023022 | 67 | 99 | 7.0 | 17.0 | 0.00 | 0.00 | 0.00 | 50 | 1030.0 |
| 20260508022001 | 67 | 73 | 7.0 | 12.0 | 0.00 | 0.00 | 0.00 | 50 | 1030.0 |
| 20260508021001 | 67 | 31 | 5.0 | 10.0 | 0.00 | 0.00 | 0.00 | 50 | 1030.1 |
| 20260508020002 | 66 | 22 | 5.0 | 10.0 | 0.00 | 0.00 | 0.00 | 51 | 1030.1 |
| 20260508015002 | 66 | 40 | 3.0 | 7.0 | 0.00 | 0.00 | 0.00 | 52 | 1030.3 |
| 20260508014001 | 65 | 36 | 4.0 | 9.0 | 0.00 | 0.00 | 0.00 | 53 | 1030.5 |
| 20260508013001 | 65 | 85 | 3.0 | 9.0 | 0.00 | 0.00 | 0.00 | 55 | 1030.6 |
| 20260508012001 | 64 | 92 | 4.0 | 7.0 | 0.00 | 0.00 | 0.00 | 55 | 1030.7 |
| 20260508011001 | 63 | 55 | 2.0 | 5.0 | 0.00 | 0.00 | 0.00 | 56 | 1031.0 |
| 20260508010002 | 62 | 61 | 3.0 | 5.0 | 0.00 | 0.00 | 0.00 | 57 | 1031.0 |
| 20260508005001 | 62 | 29 | 2.0 | 6.0 | 0.00 | 0.00 | 0.00 | 58 | 1031.1 |
| 20260508004001 | 61 | 78 | 3.0 | 6.0 | 0.00 | 0.00 | 0.00 | 60 | 1031.1 |
| 20260508003002 | 60 | 84 | 5.0 | 8.0 | 0.00 | 0.00 | 0.00 | 61 | 1031.1 |